Погода в Зеленоградском

Россия / Московская область     56°06′07″N   37°54′15″E
темп.,
°C
ветер,
м/с
пор.,
м/с
влажн.,
%
обл.,
%
осадки,
мм/ч
давл.,
гПа
погр.,
м
18 мая, вт
вт1800:00+17вюв3118517 0.0 1010268
03:00+16вюв4148713 0.0 1010338
06:00+16вюв312775 0.0 1009307
09:00+22юв5104896 0.0 1009551
12:00+27юв612335 0.0 10091246
15:00+29юв613290 0.0 10083247
18:00+25вюв5114015 0.0 1007866
21:00+21вюв6166015 0.0 1007782
19 мая, ср
ср1900:00+18вюв414775 0.0 1007425
03:00+16вюв412823 0.0 1007391
06:00+17вюв4117768 0.0 1007385
09:00+21ююв6126153 0.0 1008974
12:00+23ююв6115799 0.0 10081400
15:00+24ююв6115012 0.0 10081892
18:00+22ю476538 0.4 1007916
21:00+17ююв119191 3.6 100711
20 мая, чт
чт2000:00+16в2395100 4.0 100662
03:00+16вюв399495 5.4 1005247
06:00+16вюв4129093 0.1 1005467
09:00+18ююв7117533 0.1 10061195
12:00+19ююв6105715 0.1 10061530
15:00+19ююв7115915 0.6 10061651
18:00+17ююв611733 0.5 10051274
21:00+13ююв4118763 1.0 1006636
21 мая, пт
пт2100:00+12ююз498931 0.0 1006537
03:00+10юз399144 0.0 1007528
06:00+11ююз3784100 0.0 1007730
09:00+11зюз4887100 0.1 1009683
12:00+10з5989100 0.3 1011862
15:00+16зсз476495 0.5 10121516
18:00+17зюз3552100 0.1 10131482
21:00+11з2269100 0.1 101518
22 мая, сб
сб2200:00+10ю1173100 0.0 101610
03:00+10зюз0177100 0.0 101610
06:00+11ю0074100 0.0 101737
09:00+14ю226857 0.0 1017511
12:00+19юв214965 0.1 10161857
15:00+17ююв346096 0.1 1017540
18:00+18юв33554 0.0 1017634
21:00+12юв34830 0.0 101770